This is the latest recevied weather packets stored in our database for station/object KD0SBN. If no packets are shown the sender has not sent any weather packets the latest 10 day(s).
| Time | Temp. | Humidity | Pressure | Rain* | Wind** | Luminosity | Snow |
|---|---|---|---|---|---|---|---|
| 1777856423 | 23.89° C | 20% | 1009.9 hPa | 0 mm | - | - | - |
| 1777856120 | 24.44° C | 20% | 1009.8 hPa | 0 mm | - | - | - |
| 1777855818 | 24.44° C | 20% | 1009.9 hPa | 0 mm | - | - | - |
| 1777855516 | 24.44° C | 19% | 1009.8 hPa | 0 mm | - | - | - |
| 1777855212 | 24.44° C | 20% | 1010 hPa | 0 mm | - | - | - |
| 1777854908 | 24.44° C | 19% | 1010 hPa | 0 mm | - | - | - |
| 1777854605 | 24.44° C | 20% | 1010 hPa | 0 mm | - | - | - |
| 1777854302 | 24.44° C | 20% | 1009.9 hPa | 0 mm | - | - | - |
| 1777853999 | 24.44° C | 20% | 1009.8 hPa | 0 mm | - | - | - |
| 1777853697 | 25° C | 21% | 1009.9 hPa | 0 mm | - | - | - |
| 1777853393 | 25° C | 20% | 1009.8 hPa | 0 mm | - | - | - |
| 1777853090 | 25.56° C | 20% | 1009.7 hPa | 0 mm | - | - | - |
| 1777852788 | 26.11° C | 19% | 1009.9 hPa | 0 mm | - | - | - |
| 1777852485 | 25.56° C | 18% | 1009.5 hPa | 0 mm | - | - | - |
| 1777852182 | 25.56° C | 19% | 1009.8 hPa | 0 mm | - | - | - |
| 1777851880 | 26.11° C | 19% | 1009.8 hPa | 0 mm | - | - | - |
| 1777851578 | 26.11° C | 18% | 1009.9 hPa | 0 mm | - | - | - |
| 1777851274 | 25.56° C | 18% | 1009.9 hPa | 0 mm | - | - | - |
| 1777850971 | 26.67° C | 19% | 1009.8 hPa | 0 mm | - | - | - |
| 1777850668 | 25.56° C | 18% | 1009.8 hPa | 0 mm | - | - | - |
| 1777850366 | 25.56° C | 18% | 1010 hPa | 0 mm | - | - | - |
| 1777850063 | 26.67° C | 18% | 1009.9 hPa | 0 mm | - | - | - |
| 1777849759 | 27.78° C | 18% | 1010.1 hPa | 0 mm | - | - | - |
| 1777849456 | 26.67° C | 18% | 1009.7 hPa | 0 mm | - | - | - |
| 1777849154 | 27.22° C | 18% | 1009.9 hPa | 0 mm | - | - | - |
* Rain latest hour (hover to see other rain measurements)
** Current wind speed in m/s (hover to see current wind gust speed)